Phoenix Deer Valley, AZ

10:08 AM MST on October 15, 2019 (GMT -0700)
Phoenix-Deer Valley Municipal

Weather History for KDVT - August, 2019

Change the Weather History Date:

Monday, August 26, 2019

  Actual Average Record
Temperature  
Mean Temperature 94 °F -  
Max Temperature 104 °F 98 °F 111 °F (2011)
Min Temperature 84 °F 79 °F 72 °F (2008)
Cooling Degree Days 29    
Growing Degree Days 44 (Base 50)    
Moisture  
Dew Point 63 °F    
Average Humidity 37    
Maximum Humidity 57    
Minimum Humidity 24    
Precipitation  
Precipitation 0.00 in - - ()
Sea Level Pressure  
Sea Level Pressure 29.73 in    
Wind  
Wind Speed 6 mph ()    
Max Wind Speed 14 mph    
Max Gust Speed 22 mph    
Visibility 10.0 miles    
Events      
Averages and records for this station are not official NWS values.
T = Trace of Precipitation, MM = Missing Value Source: Averaged Metar Reports

Daily Weather History Graph

Daily Weather History Graph

Search for Another Location

Airport or City:

Astronomy

Aug. 26, 2019 Rise Set
Actual Time 5:57 AM MST 7:01 PM MST
Civil Twilight 5:32 AM MST 7:27 PM MST
Nautical Twilight 5:01 AM MST 7:57 PM MST
Astronomical Twilight 4:30 AM MST 8:29 PM MST
Moon 1:36 AM MST (8/26) 4:18 PM MST (8/26)
Length of Visible Light 13h 55m
Length of Day
13h 03m
Waning Crescent, 18% of the Moon is Illuminated
Aug 26
Waning Crescent
Aug 30
New
Sep 5
First Quarter
Sep 13
Full
Sep 21
Last Quarter

Hourly Weather History & Observations

Time (MST) Temp. Heat Index Dew Point Humidity Pressure Visibility Wind Dir Wind Speed Gust Speed Precip Events Conditions
12:53 AM 90.0 °F 90.6 °F 63.0 °F 40% 29.75 in 10.0 mi SW 5.8 mph - N/A   Clear
1:53 AM 89.1 °F 90.3 °F 64.0 °F 43% 29.75 in 10.0 mi SW 3.5 mph - N/A   Clear
2:53 AM 88.0 °F 90.3 °F 66.0 °F 48% 29.76 in 10.0 mi SW 4.6 mph - N/A   Clear
3:53 AM 87.1 °F 89.2 °F 66.0 °F 49% 29.75 in 10.0 mi West 4.6 mph - N/A   Clear
4:53 AM 86.0 °F 88.2 °F 66.0 °F 51% 29.76 in 10.0 mi West 4.6 mph - N/A   Clear
5:53 AM 84.9 °F 88.2 °F 68.0 °F 57% 29.78 in 10.0 mi WSW 5.8 mph - N/A   Clear
6:53 AM 86.0 °F 89.4 °F 68.0 °F 55% 29.80 in 10.0 mi SSW 4.6 mph - N/A   Clear
7:53 AM 87.1 °F 90.6 °F 68.0 °F 53% 29.81 in 10.0 mi WSW 4.6 mph - N/A   Clear
8:53 AM 89.1 °F 91.3 °F 66.0 °F 46% 29.82 in 10.0 mi Variable 5.8 mph - N/A   Clear
9:53 AM 93.0 °F 95.0 °F 64.9 °F 39% 29.82 in 10.0 mi SW 6.9 mph - N/A   Clear
10:53 AM 96.1 °F 99.3 °F 66.0 °F 37% 29.80 in 10.0 mi WSW 6.9 mph - N/A   Clear
11:53 AM 98.1 °F 101.2 °F 64.9 °F 34% 29.78 in 10.0 mi Variable 6.9 mph - N/A   Clear
12:53 PM 100.9 °F 104.0 °F 64.0 °F 30% 29.75 in 10.0 mi SW 11.5 mph - N/A   Clear
1:53 PM 100.0 °F 101.8 °F 62.1 °F 29% 29.72 in 10.0 mi Calm Calm - N/A   Clear
2:53 PM 102.9 °F 106.1 °F 64.0 °F 28% 29.69 in 10.0 mi WSW 10.4 mph - N/A   Clear
3:53 PM 102.0 °F 104.6 °F 63.0 °F 28% 29.67 in 10.0 mi SSW 9.2 mph 18.4 mph N/A   Clear
4:53 PM 104.0 °F 105.3 °F 61.0 °F 24% 29.65 in 10.0 mi WSW 13.8 mph 21.9 mph N/A   Clear
5:53 PM 102.9 °F 104.2 °F 61.0 °F 25% 29.65 in 10.0 mi SSW 12.7 mph - N/A   Clear
6:53 PM 100.9 °F 101.6 °F 60.1 °F 26% 29.65 in 10.0 mi SSW 12.7 mph - N/A   Clear
7:53 PM 100.0 °F 100.2 °F 59.0 °F 26% 29.67 in 10.0 mi SW 10.4 mph - N/A   Clear
8:53 PM 98.1 °F 98.1 °F 60.1 °F 28% 29.68 in 10.0 mi SW 6.9 mph - N/A   Clear
9:53 PM 98.1 °F 98.1 °F 60.1 °F 28% 29.69 in 10.0 mi SW 6.9 mph - N/A   Clear
10:53 PM 95.0 °F 94.4 °F 59.0 °F 30% 29.69 in 10.0 mi West 5.8 mph - N/A   Clear
11:53 PM 93.0 °F 92.3 °F 59.0 °F 32% 29.69 in 10.0 mi Calm Calm - N/A   Clear